QPF
0.00 0.00 0.00 0.00 0.00 0.00 0.00 0.00 0.00 0.00 0.00 0.00 0.00 0.00 0.00 0.00 0.00 0.00 0.00 0.00 0.00 0.00 0.00 0.00 0.00 0.00 0.00 0.00 0.00 0.00 0.00 0.00 0.00 0.00 0.00 0.00 0.00 0.00 0.00 0.00 0.00 0.00 0.00 0.00 0.00 0.00 0.00 0.00 0.00
0.00 0.00 0.00 0.00 0.00 0.00 0.00 0.00 0.00 0.00 0.00 0.00 0.00 0.00 0.00 0.00 0.00 0.00 0.00 0.00 0.00 0.00 0.00 0.00 0.00 0.00 0.00 0.00 0.00 0.00 0.00 0.00 0.00 0.00 0.00 0.00 0.00 0.00 0.00 0.00 0.00 0.00 0.00 0.00 0.00 0.00 0.00 0.00 0.00
0.00 0.00 0.00 0.00 0.00 0.00 0.00 0.00 0.00 0.00 0.00 0.00 0.00 0.00 0.00 0.00 0.00 0.00 0.00 0.00 0.00 0.00 0.00 0.00 0.00 0.00 0.00 0.00 0.00 0.00 0.00 0.00 0.00 0.00 0.00 0.00 0.00 0.00 0.00 0.00 0.00 0.00 0.00 0.00 0.00 0.00 0.00 0.00 0.00
0.00 0.00 0.00 0.00 0.00 0.00 0.00 0.00 0.00 0.00 0.00 0.00 0.00 0.00 0.00 0.00 0.00 0.00 0.00 0.00 0.00 0.00 0.00 0.00 0.00 0.00 0.00 0.00 0.00 0.00 0.00 0.00 0.00 0.00 0.00 0.00 0.00 0.00 0.00 0.00 0.00 0.00 0.00 0.00 0.00 0.00 0.00 0.00 0.00
0.00 0.00 0.00 0.00 0.00 0.00 0.00 0.00 0.00 0.00 0.00 0.00 0.00 0.00 0.00 0.00 0.00 0.00 0.00 0.00 0.00 0.00 0.00 0.00 0.00 0.00 0.00 0.00 0.00 0.00 0.00 0.00 0.00 0.00 0.00 0.00 0.00 0.00 0.00 0.00 0.00 0.00 0.00 0.00 0.00 0.00 0.00 0.00 0.00
0.00 0.00 0.00 0.00 0.00 0.00 0.00 0.00 0.00 0.00 0.00 0.00 0.00 0.00 0.00 0.00 0.00 0.00 0.00 0.00 0.00 0.00 0.00 0.00 0.00 0.00 0.00 0.00 0.00 0.00 0.00 0.00 0.00 0.00 0.00 0.00 0.00 0.00 0.00 0.00 0.00 0.00 0.00 0.00 0.00 0.00 0.00 0.00 0.00
0.00 0.00 0.00 0.00 0.00 0.00 0.00 0.00 0.00 0.00 0.00 0.00 0.00 0.00 0.00 0.00 0.00 0.00 0.00 0.00 0.00 0.00 0.00 0.00 0.00 0.00 0.00 0.00 0.00 0.00 0.00 0.00 0.00 0.00 0.00 0.00 0.00 0.00 0.00 0.00 0.00 0.00 0.00 0.00 0.00 0.00 0.00 0.00 0.00
0.00 0.00 0.00 0.00 0.00 0.00 0.00 0.00 0.00 0.00 0.00 0.00 0.00 0.00 0.00 0.00 0.00 0.00 0.00 0.00 0.00 0.00 0.00 0.00 0.00 0.00 0.00 0.00 0.00 0.00 0.00 0.00 0.00 0.00 0.00 0.00 0.00 0.00 0.00 0.00 0.00 0.00 0.00 0.00 0.00 0.00 0.00 0.00 0.00
0.00 0.00 0.00 0.00 0.00 0.00 0.00 0.00 0.00 0.00 0.00 0.00 0.00 0.00 0.00 0.00 0.00 0.00 0.00 0.00 0.00 0.00 0.00 0.00 0.00 0.00 0.00 0.00 0.00 0.00 0.00 0.00 0.00 0.00 0.00 0.00 0.00 0.00 0.00 0.00 0.00 0.00 0.00 0.00 0.00 0.00 0.00 0.00 0.00
0.00 0.00 0.00 0.00 0.00 0.00 0.00 0.00 0.00 0.00 0.00 0.00 0.00 0.00 0.00 0.00 0.00 0.00 0.00 0.00 0.00 0.00 0.00 0.00 0.00 0.00 0.00 0.00 0.00 0.00 0.00 0.00 0.00 0.00 0.00 0.00 0.00 0.00 0.00 0.00 0.00 0.00 0.00 0.00 0.00 0.00 0.00 0.00 0.00
0.00 0.00 0.00 0.00 0.00 0.00 0.00 0.00 0.00 0.00 0.00 0.00 0.00 0.00 0.00 0.00 0.00 0.00 0.00 0.00 0.00 0.00 0.00 0.00 0.00 0.00 0.00 0.00 0.00 0.00 0.00 0.00 0.00 0.00 0.00 0.00 0.00 0.00 0.00 0.00 0.00 0.00 0.00 0.00 0.00 0.00 0.00 0.00 0.00
0.00 0.00 0.00 0.00 0.00 0.00 0.00 0.00 0.00 0.00 0.00 0.00 0.00 0.00 0.00 0.00 0.00 0.00 0.00 0.00 0.00 0.00 0.00 0.00 0.00 0.00 0.00 0.00 0.00 0.00 0.00 0.00 0.00 0.00 0.00 0.00 0.00 0.00 0.00 0.00 0.00 0.00 0.00 0.00 0.00 0.00 0.00 0.00 0.00
0.00 0.00 0.00 0.00 0.00 0.00 0.00 0.00 0.00 0.00 0.00 0.00 0.00 0.00 0.00 0.00 0.00 0.00 0.00 0.00 0.00 0.00 0.00 0.00 0.01 0.02 0.00 0.00 0.00 0.00 0.00 0.00 0.00 0.00 0.00 0.00 0.00 0.00 0.00 0.00 0.00 0.00 0.00 0.00 0.00 0.00 0.00 0.00 0.00
0.00 0.00 0.00 0.00 0.00 0.00 0.00 0.00 0.00 0.00 0.00 0.00 0.00 0.00 0.00 0.00 0.00 0.00 0.00 0.00 0.00 0.00 0.00 0.00 0.00 0.06 0.02 0.00 0.00 0.00 0.00 0.00 0.00 0.00 0.00 0.00 0.00 0.00 0.00 0.00 0.00 0.00 0.00 0.00 0.00 0.00 0.00 0.00 0.00
0.00 0.00 0.00 0.00 0.00 0.00 0.00 0.00 0.00 0.00 0.00 0.00 0.00 0.00 0.00 0.00 0.00 0.00 0.00 0.00 0.00 0.00 0.00 0.00 0.00 0.02 0.02 0.00 0.00 0.00 0.00 0.00 0.00 0.00 0.00 0.00 0.00 0.00 0.00 0.00 0.00 0.00 0.00 0.00 0.00 0.00 0.00 0.00 0.00
0.00 0.00 0.00 0.00 0.00 0.00 0.00 0.00 0.00 0.00 0.00 0.00 0.00 0.00 0.00 0.00 0.00 0.00 0.00 0.00 0.00 0.00 0.00 0.00 0.00 0.00 0.00 0.00 0.00 0.00 0.00 0.00 0.00 0.00 0.00 0.00 0.00 0.00 0.00 0.00 0.00 0.00 0.00 0.00 0.00 0.00 0.00 0.00 0.00
0.00 0.00 0.00 0.00 0.00 0.00 0.00 0.00 0.00 0.00 0.00 0.00 0.00 0.00 0.00 0.00 0.00 0.00 0.00 0.00 0.00 0.00 0.00 0.00 0.00 0.00 0.00 0.00 0.00 0.00 0.00 0.00 0.00 0.00 0.00 0.00 0.00 0.00 0.00 0.00 0.00 0.00 0.00 0.00 0.00 0.00 0.00 0.00 0.00
0.00 0.00 0.00 0.00 0.00 0.00 0.00 0.00 0.00 0.00 0.00 0.00 0.00 0.00 0.00 0.00 0.00 0.00 0.00 0.00 0.00 0.00 0.00 0.00 0.00 0.00 0.00 0.00 0.00 0.00 0.00 0.00 0.01 0.00 0.00 0.00 0.00 0.00 0.00 0.00 0.00 0.00 0.00 0.00 0.00 0.00 0.00 0.00 0.00
0.00 0.00 0.00 0.00 0.00 0.00 0.00 0.00 0.00 0.00 0.00 0.00 0.00 0.00 0.00 0.00 0.00 0.00 0.00 0.00 0.00 0.00 0.00 0.00 0.00 0.00 0.01 0.00 0.02 0.02 0.00 0.01 0.01 0.01 0.01 0.00 0.00 0.00 0.00 0.00 0.00 0.00 0.00 0.00 0.00 0.00 0.00 0.00 0.00
0.00 0.00 0.00 0.00 0.00 0.00 0.00 0.00 0.00 0.00 0.00 0.00 0.00 0.00 0.00 0.00 0.00 0.00 0.00 0.00 0.00 0.00 0.00 0.00 0.00 0.00 0.00 0.00 0.01 0.01 0.00 0.00 0.01 0.07 0.13 0.09 0.02 0.00 0.00 0.00 0.00 0.00 0.00 0.00 0.00 0.00 0.00 0.00 0.00
0.00 0.00 0.00 0.00 0.00 0.00 0.00 0.00 0.00 0.00 0.00 0.00 0.00 0.00 0.00 0.00 0.00 0.00 0.00 0.00 0.00 0.00 0.00 0.00 0.00 0.00 0.00 0.00 0.00 0.01 0.00 0.00 0.00 0.04 0.07 0.06 0.05 0.02 0.00 0.00 0.00 0.00 0.00 0.00 0.00 0.00 0.00 0.00 0.00
0.00 0.00 0.00 0.00 0.00 0.00 0.00 0.00 0.00 0.00 0.00 0.00 0.00 0.00 0.00 0.00 0.00 0.00 0.00 0.00 0.00 0.00 0.00 0.00 0.00 0.00 0.00 0.00 0.01 0.02 0.04 0.02 0.00 0.00 0.00 0.00 0.01 0.02 0.00 0.00 0.00 0.00 0.00 0.00 0.00 0.00 0.00 0.00 0.00
0.00 0.00 0.00 0.00 0.00 0.00 0.00 0.00 0.00 0.00 0.00 0.00 0.00 0.00 0.00 0.00 0.00 0.00 0.00 0.00 0.00 0.00 0.00 0.00 0.00 0.00 0.00 0.00 0.00 0.00 0.02 0.04 0.04 0.00 0.00 0.00 0.00 0.00 0.00 0.00 0.00 0.00 0.00 0.00 0.00 0.00 0.00 0.00 0.00
0.00 0.00 0.00 0.00 0.00 0.00 0.00 0.00 0.00 0.00 0.00 0.00 0.00 0.00 0.00 0.00 0.00 0.00 0.00 0.00 0.00 0.00 0.00 0.00 0.00 0.00 0.00 0.00 0.00 0.00 0.00 0.01 0.02 0.03 0.03 0.03 0.01 0.01 0.00 0.00 0.00 0.00 0.00 0.00 0.00 0.00 0.00 0.00 0.00
0.01 0.01 0.00 0.00 0.00 0.00 0.00 0.00 0.00 0.00 0.00 0.00 0.00 0.00 0.00 0.00 0.00 0.00 0.00 0.00 0.00 0.00 0.00 0.00 0.00 0.00 0.00 0.00 0.00 0.00 0.00 0.00 0.00 0.00 0.00 0.00 0.02 0.05 0.03 0.02 0.00 0.00 0.00 0.00 0.00 0.00 0.00 0.00 0.00
0.00 0.01 0.01 0.00 0.00 0.00 0.00 0.00 0.00 0.00 0.00 0.00 0.00 0.00 0.00 0.00 0.00 0.00 0.00 0.00 0.00 0.00 0.00 0.00 0.00 0.00 0.00 0.00 0.00 0.00 0.00 0.00 0.00 0.00 0.00 0.00 0.00 0.00 0.00 0.01 0.00 0.00 0.02 0.01 0.01 0.01 0.00 0.00 0.00
0.00 0.00 0.01 0.00 0.00 0.00 0.00 0.00 0.00 0.00 0.00 0.00 0.00 0.00 0.00 0.00 0.00 0.00 0.00 0.00 0.00 0.00 0.00 0.00 0.00 0.00 0.00 0.00 0.00 0.00 0.00 0.00 0.00 0.00 0.00 0.00 0.00 0.00 0.00 0.00 0.01 0.02 0.02 0.01 0.01 0.00 0.00 0.00 0.01
0.02 0.03 0.02 0.01 0.00 0.00 0.00 0.00 0.00 0.00 0.00 0.00 0.00 0.00 0.00 0.00 0.00 0.00 0.00 0.00 0.00 0.00 0.00 0.00 0.00 0.00 0.00 0.00 0.00 0.00 0.00 0.00 0.00 0.00 0.00 0.00 0.00 0.00 0.00 0.00 0.00 0.01 0.02 0.03 0.02 0.00 0.01 0.00 0.03
0.04 0.05 0.03 0.01 0.01 0.01 0.00 0.00 0.00 0.00 0.00 0.00 0.00 0.00 0.00 0.00 0.00 0.00 0.00 0.00 0.00 0.00 0.00 0.00 0.00 0.00 0.00 0.00 0.00 0.00 0.00 0.00 0.00 0.00 0.00 0.00 0.00 0.00 0.00 0.00 0.00 0.00 0.00 0.00 0.03 0.04 0.02 0.06 0.13
0.01 0.04 0.02 0.01 0.00 0.01 0.00 0.00 0.01 0.00 0.00 0.00 0.00 0.00 0.00 0.00 0.00 0.00 0.00 0.00 0.00 0.00 0.00 0.00 0.00 0.00 0.00 0.00 0.00 0.00 0.00 0.00 0.00 0.00 0.00 0.00 0.00 0.00 0.00 0.00 0.00 0.00 0.00 0.00 0.00 0.00 0.01 0.07 0.10
MSLP
1010.51 1009.92 1009.76 1010.07 1011.19 1011.29 1010.15 1008.83 1007.36 1006.32 1004.99 1004.24 1003.55 1003.45 1003.57 1003.33 1004.23 1005.86 1005.56 1005.73 1006.69 1007.62 1008.01 1008.39 1009.01 1009.08 1009.43 1009.85 1010.05 1010.45 1010.85 1011.15 1011.37 1011.75 1012.12 1012.45 1012.75 1013.13 1013.49 1013.79 1014.11 1014.25 1014.38 1014.57 1014.68 1014.82 1014.95 1015.02 1015.14
1010.56 1010.01 1009.98 1010.62 1011.43 1011.36 1009.35 1008.16 1007.18 1005.99 1004.64 1004.36 1003.96 1003.94 1003.85 1004.76 1004.71 1005.26 1005.60 1006.20 1006.60 1007.48 1008.18 1008.52 1009.17 1009.50 1009.50 1009.77 1010.06 1010.66 1011.04 1011.37 1011.72 1012.02 1012.28 1012.63 1012.88 1013.24 1013.49 1013.86 1014.14 1014.33 1014.42 1014.47 1014.66 1014.77 1014.87 1015.02 1015.07
1010.55 1010.61 1011.19 1011.45 1011.50 1010.80 1009.14 1007.93 1007.01 1005.81 1004.45 1004.22 1004.16 1003.85 1004.39 1004.72 1004.94 1005.24 1005.22 1006.04 1006.89 1007.80 1008.06 1008.46 1008.98 1009.59 1009.86 1009.97 1009.98 1010.31 1011.00 1011.36 1011.96 1012.43 1012.57 1012.75 1013.13 1013.42 1013.60 1013.91 1014.13 1014.27 1014.38 1014.54 1014.65 1014.77 1014.89 1014.97 1015.03
1010.67 1011.27 1011.71 1011.83 1011.40 1009.66 1008.63 1007.13 1006.92 1005.98 1004.67 1004.15 1004.58 1004.79 1004.69 1004.65 1004.46 1004.64 1005.53 1006.02 1006.56 1007.74 1008.11 1008.24 1008.93 1009.54 1010.04 1010.16 1010.32 1010.36 1010.88 1011.41 1011.78 1012.29 1012.77 1013.10 1013.30 1013.52 1013.78 1013.94 1014.18 1014.37 1014.43 1014.51 1014.72 1014.83 1014.94 1015.03 1015.15
1011.09 1012.08 1012.29 1012.40 1011.24 1009.50 1008.41 1007.19 1006.70 1006.09 1005.21 1004.81 1005.07 1005.44 1005.03 1005.04 1004.56 1004.99 1005.47 1006.00 1006.46 1007.29 1007.90 1008.12 1008.52 1009.48 1010.18 1010.57 1010.77 1010.86 1011.25 1011.59 1011.94 1012.30 1012.71 1013.15 1013.49 1013.71 1013.89 1014.15 1014.41 1014.59 1014.72 1014.71 1014.67 1014.73 1014.77 1014.98 1015.22
1011.61 1012.30 1012.80 1012.38 1011.24 1009.47 1007.87 1007.28 1006.93 1006.05 1004.82 1004.53 1005.22 1005.51 1005.54 1005.25 1005.00 1005.40 1005.92 1006.08 1006.58 1006.82 1007.78 1008.10 1008.25 1009.18 1010.07 1010.54 1011.05 1011.02 1011.38 1012.07 1012.27 1012.56 1012.92 1013.29 1013.57 1013.70 1013.98 1014.16 1014.36 1014.66 1014.80 1014.75 1014.73 1014.73 1014.89 1015.06 1015.26
1011.92 1012.58 1012.51 1012.15 1011.10 1009.58 1007.48 1007.31 1007.10 1006.20 1004.66 1004.05 1004.53 1005.21 1005.45 1004.93 1004.94 1005.04 1005.07 1006.05 1006.83 1007.01 1007.43 1008.14 1008.64 1009.18 1009.96 1010.49 1010.90 1011.08 1011.23 1011.75 1012.65 1012.81 1013.09 1013.54 1013.75 1013.86 1013.87 1014.06 1014.30 1014.59 1014.81 1014.88 1014.95 1014.97 1015.07 1015.11 1015.32
1011.78 1012.09 1011.98 1011.55 1010.92 1009.21 1007.55 1007.33 1006.79 1006.29 1004.71 1003.59 1003.34 1004.77 1005.22 1004.39 1004.33 1004.72 1004.82 1005.86 1006.75 1007.58 1007.83 1008.20 1008.42 1009.09 1009.83 1010.45 1010.76 1011.09 1011.04 1011.47 1012.06 1012.82 1013.23 1013.56 1013.71 1013.94 1014.10 1014.15 1014.32 1014.44 1014.70 1014.86 1014.97 1015.15 1015.20 1015.31 1015.34
1011.18 1011.64 1011.42 1010.87 1010.50 1009.15 1007.73 1007.26 1006.52 1005.73 1005.35 1003.91 1003.71 1003.71 1004.01 1004.02 1003.65 1004.78 1005.51 1006.67 1007.40 1008.08 1008.34 1008.90 1008.45 1009.00 1009.75 1010.38 1010.79 1011.00 1010.93 1011.29 1011.79 1012.32 1012.96 1013.44 1013.78 1013.91 1013.99 1014.17 1014.23 1014.46 1014.68 1014.76 1014.98 1015.07 1015.16 1015.26 1015.30
1011.13 1011.11 1010.53 1010.02 1009.39 1008.85 1007.86 1006.85 1006.73 1006.34 1004.98 1004.38 1004.21 1003.64 1004.14 1004.14 1003.75 1004.69 1005.58 1006.69 1007.21 1007.84 1008.40 1008.83 1009.31 1009.31 1009.33 1010.15 1010.70 1011.05 1011.39 1011.20 1011.59 1012.18 1012.59 1013.02 1013.49 1013.75 1013.95 1014.07 1014.14 1014.06 1014.30 1014.52 1014.76 1015.04 1015.13 1015.08 1015.24
1010.19 1010.17 1010.06 1009.39 1008.87 1008.63 1007.51 1006.34 1006.71 1006.23 1005.52 1004.73 1004.03 1003.64 1004.35 1004.66 1004.51 1004.64 1005.40 1005.75 1006.29 1007.07 1007.77 1008.40 1009.05 1009.69 1009.63 1009.82 1010.55 1011.03 1011.22 1011.51 1011.52 1011.80 1012.37 1012.59 1013.09 1013.41 1013.65 1013.97 1014.14 1014.23 1014.03 1014.27 1014.46 1014.74 1014.83 1014.95 1015.23
1010.39 1009.94 1009.68 1008.87 1008.36 1007.75 1006.93 1006.52 1006.08 1006.00 1005.17 1004.56 1004.01 1003.34 1004.32 1004.63 1004.70 1004.69 1004.86 1005.69 1005.98 1006.40 1006.72 1007.54 1008.34 1009.40 1009.85 1009.45 1010.17 1010.68 1011.09 1011.43 1011.61 1011.64 1011.86 1012.31 1012.57 1012.93 1013.20 1013.49 1013.72 1013.96 1013.89 1014.02 1014.37 1014.49 1014.57 1014.80 1014.90
1009.94 1009.52 1008.79 1008.14 1007.69 1007.38 1007.12 1006.35 1005.68 1004.97 1004.78 1003.98 1003.72 1003.37 1003.96 1004.37 1004.70 1004.68 1004.82 1004.87 1005.70 1006.06 1006.37 1007.22 1007.94 1008.70 1009.20 1010.03 1009.68 1010.13 1010.78 1011.07 1011.37 1011.72 1011.74 1011.87 1012.23 1012.35 1012.54 1012.87 1013.08 1013.31 1013.62 1013.86 1014.01 1014.08 1014.30 1014.51 1014.59
1009.53 1009.10 1008.47 1007.80 1007.37 1007.08 1006.96 1005.98 1005.45 1004.31 1004.12 1003.78 1003.88 1003.64 1003.97 1004.26 1004.38 1004.56 1004.94 1005.19 1005.62 1005.58 1005.99 1006.57 1007.42 1008.29 1008.62 1009.34 1009.84 1009.45 1009.73 1010.40 1010.95 1011.28 1011.42 1011.47 1011.62 1012.07 1012.40 1012.69 1013.03 1013.05 1013.17 1013.31 1013.51 1013.72 1014.18 1014.15 1014.22
1009.43 1009.11 1008.31 1007.67 1007.15 1006.60 1006.42 1005.88 1004.66 1004.11 1003.99 1004.25 1004.12 1004.05 1003.93 1003.95 1004.20 1004.60 1004.71 1005.04 1005.15 1005.56 1005.88 1006.15 1006.48 1007.12 1008.38 1008.67 1008.88 1009.36 1009.36 1009.73 1010.38 1010.62 1011.01 1011.30 1011.50 1011.74 1012.03 1012.46 1012.62 1012.56 1012.79 1013.01 1013.25 1013.44 1013.69 1014.02 1013.93
1009.85 1009.62 1009.13 1007.94 1007.34 1006.66 1006.62 1005.22 1004.29 1004.01 1003.87 1003.93 1004.09 1004.09 1003.90 1004.09 1004.34 1004.19 1004.45 1004.69 1005.00 1005.17 1005.46 1006.10 1006.43 1006.75 1007.07 1008.20 1008.40 1008.56 1008.88 1009.05 1009.31 1009.81 1010.38 1010.55 1010.90 1011.01 1011.56 1011.92 1012.04 1012.07 1012.34 1012.68 1013.06 1013.22 1013.53 1013.62 1013.62
1010.51 1010.25 1009.41 1008.17 1007.17 1007.03 1006.78 1005.37 1004.42 1004.06 1004.18 1003.78 1003.95 1004.15 1004.33 1004.33 1004.10 1004.24 1004.22 1004.54 1004.98 1005.14 1005.35 1005.87 1006.08 1006.77 1007.10 1007.23 1007.71 1007.87 1008.20 1008.34 1008.90 1008.99 1009.35 1010.17 1010.21 1010.36 1010.59 1011.22 1011.40 1011.49 1011.98 1012.25 1012.76 1012.85 1013.22 1013.36 1013.21
1010.82 1010.23 1009.32 1008.31 1006.93 1006.88 1006.39 1005.57 1004.64 1004.23 1003.98 1003.66 1003.78 1003.90 1003.94 1004.04 1004.02 1003.98 1004.30 1004.59 1005.04 1005.52 1005.55 1005.75 1006.06 1006.31 1007.25 1007.66 1007.96 1007.98 1007.88 1008.04 1008.30 1009.01 1008.96 1009.21 1009.72 1010.15 1009.68 1010.47 1011.06 1011.13 1011.70 1011.85 1012.22 1012.40 1012.68 1012.96 1013.06
1010.09 1009.78 1009.12 1007.77 1006.91 1006.82 1006.42 1005.67 1004.80 1003.71 1003.26 1003.25 1003.48 1003.70 1003.65 1003.64 1003.45 1003.41 1004.48 1005.07 1005.28 1005.50 1005.80 1005.92 1006.26 1006.61 1006.93 1007.76 1008.31 1008.48 1008.11 1007.95 1007.91 1008.46 1008.88 1009.17 1008.98 1009.57 1009.57 1009.57 1010.66 1010.82 1011.31 1011.72 1011.93 1012.32 1012.62 1012.90 1012.92
1009.21 1009.03 1008.39 1007.45 1006.77 1006.52 1006.05 1005.56 1004.58 1004.02 1003.30 1002.81 1003.03 1003.52 1003.85 1003.65 1003.58 1003.93 1004.49 1005.23 1005.57 1005.60 1005.74 1006.14 1006.54 1007.04 1007.11 1007.35 1007.78 1008.12 1008.48 1008.32 1008.01 1007.90 1008.51 1009.70 1009.42 1008.56 1008.95 1010.20 1009.94 1010.26 1010.75 1011.35 1011.85 1012.18 1012.53 1012.72 1012.86
1008.05 1007.90 1007.64 1007.29 1006.87 1006.41 1006.27 1005.83 1004.95 1003.91 1003.54 1002.94 1002.76 1002.64 1003.01 1003.56 1004.28 1004.47 1004.71 1004.93 1005.49 1005.82 1005.73 1005.85 1006.29 1006.88 1007.53 1007.65 1007.75 1008.29 1008.40 1008.31 1008.50 1008.27 1008.50 1008.28 1008.29 1008.72 1009.45 1009.83 1009.65 1009.95 1010.27 1010.59 1011.12 1011.64 1012.24 1012.45 1012.41
1007.48 1007.04 1006.92 1007.15 1007.46 1007.66 1007.16 1007.04 1005.71 1004.54 1004.15 1003.50 1003.02 1003.01 1003.26 1003.31 1003.51 1003.93 1004.15 1004.83 1004.85 1005.05 1005.32 1005.60 1006.02 1006.71 1007.04 1007.51 1008.02 1008.38 1008.52 1008.91 1008.66 1008.64 1008.22 1007.65 1007.61 1008.55 1008.68 1009.12 1008.86 1009.39 1009.91 1010.30 1010.34 1010.83 1011.41 1011.90 1011.89
1007.69 1007.31 1007.04 1007.41 1007.93 1008.11 1007.44 1007.89 1005.52 1004.94 1004.47 1004.05 1003.35 1002.80 1002.45 1002.59 1002.72 1003.12 1003.60 1004.14 1004.73 1005.17 1005.37 1005.59 1006.02 1006.43 1006.66 1007.11 1007.56 1007.94 1008.31 1008.43 1008.62 1008.41 1008.29 1008.06 1007.82 1007.48 1008.34 1009.05 1009.37 1009.75 1009.03 1009.48 1009.84 1010.36 1010.80 1011.27 1011.57
1008.10 1008.20 1008.51 1008.85 1009.10 1009.04 1007.64 1007.84 1006.01 1005.00 1004.34 1003.93 1003.18 1002.73 1002.15 1001.99 1002.09 1002.53 1003.36 1004.20 1004.91 1005.30 1005.51 1005.84 1006.26 1006.63 1006.65 1006.76 1007.07 1007.63 1007.96 1008.18 1008.41 1008.37 1008.27 1008.61 1008.62 1007.98 1007.96 1007.33 1007.65 1008.11 1008.03 1008.80 1009.84 1009.85 1010.41 1010.83 1010.91
1008.76 1009.66 1010.78 1011.16 1011.12 1009.43 1008.41 1007.77 1004.92 1004.26 1003.73 1003.50 1003.18 1001.96 1001.32 1001.64 1002.04 1002.24 1003.20 1004.20 1004.87 1005.48 1005.93 1006.03 1006.24 1006.46 1006.60 1006.98 1007.38 1007.55 1007.86 1008.19 1008.38 1008.36 1008.32 1008.28 1008.04 1008.08 1007.79 1007.79 1007.16 1008.05 1008.13 1007.50 1009.47 1009.59 1009.81 1009.54 1010.34
1010.07 1010.76 1011.29 1011.57 1012.32 1010.90 1009.16 1007.28 1005.03 1003.78 1003.47 1002.82 1002.43 1001.06 1000.87 1001.53 1002.07 1002.32 1003.07 1003.74 1004.26 1004.86 1005.31 1005.52 1005.90 1006.22 1006.47 1006.78 1007.22 1007.35 1007.66 1008.08 1008.32 1008.40 1008.40 1008.25 1008.23 1008.26 1008.18 1008.50 1007.90 1007.23 1007.60 1008.38 1008.38 1008.78 1008.69 1008.30 1009.63
1010.51 1011.25 1011.11 1011.74 1012.59 1012.29 1009.78 1006.87 1005.08 1004.01 1003.33 1002.80 1002.70 1002.37 1002.12 1002.10 1002.66 1002.78 1003.02 1003.35 1003.75 1004.17 1004.77 1005.11 1005.52 1005.60 1005.83 1006.20 1006.64 1007.04 1007.19 1007.56 1007.81 1007.70 1007.82 1007.85 1007.73 1007.63 1007.30 1007.52 1007.22 1007.42 1007.51 1007.66 1008.16 1007.29 1007.71 1008.10 1008.30
1010.44 1011.79 1012.22 1012.91 1012.73 1011.62 1009.34 1007.86 1006.17 1004.95 1003.96 1003.58 1003.44 1003.76 1004.08 1004.48 1004.32 1003.97 1003.61 1003.64 1003.67 1003.73 1004.14 1004.44 1004.57 1004.96 1005.19 1005.68 1006.14 1006.47 1006.54 1006.55 1006.73 1006.96 1007.21 1007.09 1006.91 1006.93 1007.17 1007.13 1007.29 1006.60 1006.69 1006.64 1007.41 1007.64 1007.17 1007.66 1007.38
1010.97 1011.73 1012.26 1012.55 1012.90 1012.05 1010.37 1008.20 1006.42 1005.40 1004.60 1004.55 1004.75 1004.51 1004.80 1005.15 1005.14 1004.75 1004.74 1004.60 1003.61 1003.57 1003.99 1004.17 1004.36 1004.52 1004.80 1005.04 1005.47 1005.81 1006.13 1006.22 1006.27 1006.39 1006.26 1006.17 1006.36 1006.59 1006.71 1006.68 1007.03 1006.65 1007.11 1006.99 1007.15 1007.31 1006.64 1006.25 1005.54
1010.67 1011.53 1012.05 1012.75 1013.01 1012.17 1011.14 1008.92 1006.52 1005.79 1005.32 1004.86 1004.82 1004.56 1004.74 1004.99 1005.47 1005.46 1005.11 1004.93 1004.58 1004.56 1003.89 1003.83 1003.95 1004.27 1004.40 1004.61 1005.06 1005.40 1005.65 1005.79 1006.27 1006.48 1006.41 1006.27 1006.04 1005.98 1006.18 1006.41 1006.51 1006.58 1006.82 1006.72 1006.49 1006.58 1005.90 1005.57 1005.39
Thickness
5776 5784 5786 5776 5742 5739 5744 5770 5794 5789 5803 5823 5830 5822 5817 5832 5820 5792 5848 5854 5849 5841 5837 5836 5831 5831 5829 5826 5825 5823 5820 5817 5816 5814 5811 5808 5805 5802 5798 5794 5790 5787 5785 5782 5780 5777 5774 5771 5768
5769 5776 5774 5756 5723 5717 5744 5778 5778 5792 5813 5820 5821 5817 5815 5806 5833 5833 5839 5848 5847 5842 5834 5832 5828 5827 5828 5826 5824 5820 5817 5815 5813 5811 5810 5807 5804 5801 5798 5794 5790 5786 5785 5784 5780 5778 5775 5771 5769
5763 5765 5743 5727 5713 5720 5741 5771 5777 5791 5814 5815 5803 5822 5813 5811 5831 5832 5845 5845 5843 5835 5833 5830 5828 5824 5824 5823 5825 5823 5818 5816 5811 5807 5807 5806 5802 5799 5797 5793 5790 5787 5785 5783 5781 5778 5775 5772 5770
5750 5742 5735 5710 5714 5744 5757 5775 5778 5783 5804 5813 5803 5789 5812 5825 5833 5840 5840 5842 5841 5833 5829 5829 5826 5823 5820 5820 5819 5822 5820 5815 5813 5809 5804 5801 5800 5798 5794 5793 5789 5786 5784 5784 5780 5777 5775 5772 5769
5738 5719 5703 5697 5713 5744 5764 5776 5776 5777 5789 5795 5793 5780 5792 5813 5831 5836 5836 5838 5838 5832 5828 5828 5827 5820 5815 5813 5813 5814 5813 5813 5811 5808 5805 5801 5797 5795 5793 5790 5786 5783 5782 5781 5781 5779 5776 5773 5769
5710 5710 5686 5684 5709 5743 5765 5772 5767 5774 5789 5795 5782 5779 5785 5809 5812 5821 5827 5831 5833 5834 5828 5826 5826 5819 5813 5810 5807 5809 5808 5804 5805 5803 5801 5797 5795 5794 5791 5789 5787 5783 5780 5780 5779 5778 5775 5771 5767
5700 5691 5683 5694 5705 5724 5758 5768 5759 5763 5778 5786 5794 5770 5785 5802 5808 5811 5826 5828 5829 5833 5828 5822 5819 5815 5810 5807 5806 5806 5807 5804 5797 5797 5796 5793 5791 5790 5791 5789 5786 5783 5780 5778 5776 5774 5772 5769 5764
5701 5693 5691 5693 5698 5715 5754 5755 5764 5756 5772 5800 5808 5765 5769 5801 5813 5811 5815 5821 5825 5821 5819 5818 5817 5812 5807 5804 5804 5803 5805 5804 5800 5794 5791 5789 5787 5785 5785 5785 5783 5782 5779 5776 5775 5772 5770 5766 5763
5707 5678 5680 5694 5697 5715 5743 5741 5759 5772 5763 5785 5792 5790 5796 5806 5814 5799 5798 5804 5808 5808 5810 5806 5811 5807 5802 5799 5798 5799 5802 5801 5799 5796 5791 5787 5784 5782 5782 5781 5780 5778 5776 5775 5772 5770 5769 5766 5763
5684 5670 5686 5707 5711 5711 5727 5737 5740 5743 5753 5764 5772 5788 5789 5795 5803 5794 5784 5784 5792 5797 5800 5800 5799 5799 5799 5795 5794 5794 5793 5798 5797 5793 5791 5788 5783 5781 5779 5778 5778 5779 5776 5774 5771 5768 5767 5766 5764
5691 5683 5694 5704 5709 5713 5721 5732 5736 5730 5729 5749 5758 5776 5770 5776 5781 5785 5780 5781 5790 5794 5795 5794 5793 5789 5793 5793 5790 5788 5790 5790 5792 5792 5789 5788 5784 5781 5779 5777 5775 5775 5776 5774 5772 5771 5769 5766 5761
5671 5686 5691 5703 5710 5712 5716 5730 5727 5726 5736 5753 5765 5777 5767 5761 5766 5772 5779 5771 5782 5787 5792 5792 5789 5785 5783 5788 5786 5785 5785 5785 5786 5788 5789 5786 5785 5782 5780 5778 5777 5775 5775 5774 5771 5770 5769 5766 5763
5672 5680 5691 5700 5705 5707 5712 5715 5719 5729 5741 5753 5757 5764 5761 5756 5758 5766 5775 5781 5773 5778 5783 5783 5782 5780 5781 5777 5783 5783 5782 5782 5782 5780 5783 5784 5783 5783 5781 5780 5780 5778 5774 5771 5770 5769 5767 5765 5763
5679 5681 5686 5695 5695 5697 5693 5705 5712 5738 5739 5742 5741 5748 5753 5753 5754 5758 5762 5767 5766 5772 5773 5777 5775 5773 5774 5774 5774 5782 5782 5780 5778 5777 5779 5781 5781 5778 5778 5776 5775 5775 5773 5771 5770 5767 5763 5764 5762
5672 5665 5675 5687 5694 5693 5698 5686 5708 5733 5731 5725 5730 5733 5741 5747 5751 5748 5754 5759 5764 5765 5766 5765 5772 5772 5765 5770 5772 5773 5778 5777 5775 5775 5774 5774 5775 5774 5772 5771 5771 5772 5769 5768 5767 5765 5762 5759 5760
5652 5653 5642 5672 5682 5690 5683 5673 5710 5722 5725 5721 5721 5724 5731 5738 5742 5747 5750 5754 5756 5761 5763 5762 5763 5765 5767 5763 5767 5767 5769 5773 5774 5773 5771 5772 5771 5772 5769 5769 5769 5767 5767 5765 5762 5762 5759 5757 5759
5629 5623 5635 5653 5675 5668 5666 5667 5700 5708 5705 5709 5716 5716 5717 5722 5729 5739 5745 5742 5749 5752 5755 5754 5755 5750 5755 5761 5761 5766 5763 5764 5765 5769 5770 5765 5766 5769 5770 5767 5767 5764 5763 5763 5759 5759 5756 5754 5756
5613 5619 5628 5635 5668 5659 5653 5657 5684 5693 5690 5702 5705 5709 5712 5713 5719 5730 5731 5736 5737 5739 5743 5743 5743 5744 5738 5743 5745 5749 5756 5759 5759 5757 5760 5764 5762 5759 5767 5763 5760 5758 5755 5757 5755 5756 5754 5751 5751
5623 5620 5620 5641 5656 5645 5643 5648 5665 5683 5689 5691 5696 5700 5705 5710 5720 5725 5722 5720 5725 5726 5728 5734 5732 5731 5730 5726 5727 5728 5738 5746 5752 5747 5749 5748 5750 5749 5756 5760 5751 5753 5749 5747 5749 5748 5746 5743 5744
5621 5614 5617 5632 5644 5640 5641 5642 5660 5668 5680 5688 5690 5691 5692 5700 5704 5706 5710 5711 5712 5715 5719 5719 5720 5716 5718 5719 5722 5721 5721 5725 5735 5740 5738 5729 5733 5746 5746 5739 5748 5747 5745 5742 5740 5739 5737 5736 5736
5622 5615 5616 5616 5629 5636 5632 5626 5642 5664 5671 5682 5684 5693 5693 5691 5687 5690 5697 5702 5703 5703 5707 5712 5710 5706 5703 5707 5710 5708 5711 5714 5713 5723 5728 5734 5731 5735 5732 5732 5740 5740 5740 5739 5737 5734 5730 5728 5731
5602 5626 5624 5620 5606 5590 5626 5586 5623 5647 5649 5660 5667 5671 5673 5679 5684 5686 5691 5689 5696 5699 5699 5702 5702 5698 5695 5696 5695 5695 5695 5696 5701 5706 5717 5728 5732 5727 5724 5724 5733 5735 5732 5731 5733 5729 5727 5725 5726
5604 5618 5619 5614 5599 5593 5606 5582 5616 5633 5633 5640 5654 5663 5674 5678 5684 5682 5685 5688 5687 5687 5688 5691 5690 5690 5690 5688 5687 5686 5685 5690 5692 5699 5701 5712 5718 5726 5720 5719 5720 5721 5730 5730 5728 5723 5718 5720 5721
5606 5599 5593 5587 5577 5564 5601 5581 5597 5616 5627 5632 5646 5657 5670 5672 5674 5673 5674 5672 5672 5674 5675 5677 5678 5678 5679 5680 5680 5679 5678 5680 5682 5686 5690 5695 5698 5706 5712 5723 5725 5722 5726 5723 5719 5717 5711 5713 5717
5588 5572 5551 5543 5545 5567 5592 5579 5611 5620 5627 5626 5628 5650 5662 5662 5665 5667 5663 5660 5656 5656 5658 5661 5665 5665 5667 5666 5666 5668 5669 5669 5671 5675 5677 5681 5691 5695 5700 5703 5712 5707 5712 5722 5705 5707 5711 5716 5711
5561 5555 5540 5547 5522 5555 5573 5571 5595 5621 5621 5626 5630 5646 5652 5654 5657 5660 5658 5656 5655 5651 5650 5651 5651 5653 5655 5656 5655 5657 5659 5659 5662 5664 5666 5670 5673 5677 5681 5683 5692 5703 5702 5697 5704 5703 5708 5715 5706
5556 5544 5554 5543 5535 5528 5550 5583 5601 5610 5615 5619 5622 5629 5632 5640 5642 5647 5647 5647 5648 5648 5645 5642 5642 5643 5647 5650 5651 5650 5651 5653 5654 5658 5660 5661 5663 5667 5674 5679 5686 5688 5690 5691 5691 5705 5703 5702 5707
5553 5545 5524 5528 5533 5537 5551 5562 5568 5589 5598 5603 5606 5603 5604 5607 5616 5625 5631 5635 5640 5643 5642 5639 5639 5638 5641 5642 5642 5643 5646 5649 5651 5653 5655 5660 5663 5665 5665 5669 5670 5683 5687 5688 5687 5689 5701 5695 5702
5535 5530 5526 5526 5525 5530 5531 5547 5576 5579 5587 5588 5587 5593 5587 5588 5592 5601 5606 5611 5626 5629 5628 5628 5629 5632 5633 5636 5636 5636 5637 5640 5642 5645 5649 5655 5656 5656 5660 5664 5660 5669 5666 5674 5676 5681 5690 5700 5709
5537 5525 5523 5516 5520 5522 5520 5532 5570 5579 5577 5581 5585 5589 5591 5586 5584 5588 5596 5600 5605 5606 5615 5621 5621 5622 5625 5628 5628 5630 5632 5632 5631 5632 5635 5640 5646 5649 5652 5652 5655 5658 5659 5663 5670 5674 5687 5694 5699